Retour au catalogue

STARLINK-31524

ActifCommunicationsVLEO
NORAD 59506·PAYLOAD·🇺🇸 United States

Lancé Apr 13, 2024 depuis Cape Canaveral Space Force Station

Loading…

Prochains Passages (prochaines 24 heures)

TLE

FraisSource: CelesTrak SupGP

Époque: Sep 14, 2026, 21:30 UTC

1 59506C 24071Y   26257.89631944 -.00012783  00000+0 -46295-3 0  2573
2 59506  43.0018 344.2642 0001571 269.2961 329.4992 15.27589238    16

Suivez STARLINK-31524 en temps réel avec AllMySat

Download on the App Store